Pagina principale
METAR-TAF:

METAR-TAF

Aeroporti :

Raymond, Mississippi, Stati Uniti

latitudine: 32-18-16N, longitudine: 090-24-38W, altezza: 75 m

Osservazione

Il bollettino è stato emesso 17 minuti fa, alle 16:15 UTC
Vento calmo
Temperature 15°C
Umidità 100%
Pressione 1019 hPa
Visibilità: 14.5 km
Cielo coperto ad un'altezza di 200 ft

METAR: KJVW 221615Z AUTO 00000KT 9SM OVC002 15/15 A3009 RMK AO2

Ora: 10:32 (16:32 UTC)


TAF: mancante

Osservazioni e previsioni meteorologiche di più di 4000 aeroporti (messaggi METAR e TAF).

Le stazioni disponibili sono rappresentate dai dischi gialli e rossi sulla carta.

Puntare il mouse per vedere il nome della stazione.

Clicca sopra per visualizzare le osservazioni e previsioni meteorologiche.

Per cambiare la mappa : fare clic sui pulsanti verdi con una croce nera per ingrandire, il pulsante verde con un trattino per diminuire, o sulla freccia verde per le mappe adiacenti.


METAR-TAF: